Tracking 18673 objects as of 25-June-2017
HD Live streaming from Space Station
objects crossing your sky now

COSMOS 1305

Track COSMOS 1305 now!
10-day predictions
COSMOS 1305 is classified as:


NORAD ID: 12818
Int'l Code: 1981-088A
Perigee: 1,023.0 km
Apogee: 13,478.6 km
Inclination: 63.3 °
Period: 263.7 minutes
Semi major axis: 13621 km
RCS: 12.474 m2 (large)
Launch date: September 11, 1981
Source: Commonwealth of Independent States (former USSR) (CIS)
Launch site: PLESETSK MISSILE AND SPACE COMPLEX (PKMTR)
Your satellite tracking list
Your tracking list is empty





NASA's NSSDC Master Catalog

Two Line Element Set (TLE):
1 12818U 81088A   17175.53150249 -.00000021 +00000-0 +00000-0 0  9999
2 12818 063.2979 298.8068 4571954 210.0828 253.4856 05.46074671713649
Source of the keplerian elements: AFSPC